period_start,C,m1,H,J0,J1,J2,J3,J4,J5,JA,JB,JC,JD,JJ,JK,JN,#
2016-04-14 00:03:34,0.21,9.19,0.00,18.95,23.85,26.97,14.80,51.98,1018.60,2045.24,1290.05,1593.82,1791.91,599.64,605.08,50.52,0000 0000 0000 0000 000000
2016-04-14 00:08:36,0.27,9.20,0.00,18.98,23.85,26.99,14.82,51.94,1018.59,2045.10,1288.68,1592.59,1790.57,600.22,605.64,50.57,0000 0000 0000 0000 000000
2016-04-14 00:13:37,0.28,9.21,0.00,19.01,23.87,27.01,14.78,52.03,1018.59,2045.04,1286.77,1591.40,1789.14,599.69,605.08,50.62,0000 0000 0000 0000 000000
2016-04-14 00:18:38,0.22,9.22,0.00,19.03,23.87,27.02,14.90,51.99,1018.60,2045.02,1285.43,1590.20,1787.77,599.83,605.10,50.67,0000 0000 0000 0000 000000
2016-04-14 00:23:40,0.34,9.24,0.00,19.06,23.90,27.04,14.94,52.19,1018.63,2045.01,1283.52,1588.71,1786.12,600.48,605.81,50.72,0000 0000 0000 0000 000000
2016-04-14 00:28:41,0.33,9.26,0.00,19.08,23.90,27.04,14.92,52.27,1018.68,2045.00,1281.43,1587.10,1784.32,600.04,605.30,50.77,0000 0000 0000 0000 000000
2016-04-14 00:33:42,0.32,9.27,0.00,19.10,23.92,27.06,14.82,52.25,1018.73,2045.00,1279.60,1585.66,1782.64,599.94,605.14,50.82,0000 0000 0000 0000 000000
2016-04-14 00:38:44,0.31,9.29,0.00,19.14,23.92,27.06,14.90,52.17,1018.78,2045.00,1277.71,1584.24,1780.95,599.77,604.98,50.88,0000 0000 0000 0000 000000
2016-04-14 00:43:45,0.35,9.31,0.00,19.14,23.94,27.07,14.97,52.23,1018.68,2045.00,1275.76,1582.70,1779.25,600.27,605.40,50.93,0000 0000 0000 0000 000000
2016-04-14 00:48:46,0.27,9.32,0.00,19.18,23.96,27.07,14.84,52.20,1018.63,2044.99,1274.06,1581.34,1777.61,599.97,604.99,50.98,0000 0000 0000 0000 000000
2016-04-14 00:53:47,0.36,9.34,0.00,19.22,23.97,27.08,14.85,52.10,1018.62,2044.98,1272.15,1579.80,1775.93,599.96,604.79,51.03,0000 0000 0000 0000 000000
2016-04-14 00:58:49,0.37,9.36,0.00,19.25,23.99,27.09,14.82,51.89,1018.64,2044.97,1269.86,1578.17,1774.04,600.09,604.98,51.08,0000 0000 0000 0000 000000
2016-04-14 01:03:50,0.45,9.38,0.00,19.29,24.01,27.10,14.80,52.13,1018.65,2044.96,1267.23,1576.29,1771.87,600.20,604.89,51.13,0000 0000 0000 0000 000000
2016-04-14 01:08:51,0.44,9.40,0.00,19.32,24.02,27.12,14.77,52.13,1018.69,2044.96,1264.41,1574.26,1769.52,599.75,604.51,51.18,0000 0000 0000 0000 000000
2016-04-14 01:13:52,0.36,9.42,0.00,19.36,24.04,27.13,14.86,52.24,1018.75,2044.85,1262.29,1572.59,1767.66,599.85,604.51,51.23,0000 0000 0000 0000 000000
2016-04-14 01:18:53,0.36,9.44,0.00,19.39,24.06,27.16,14.84,52.07,1018.88,2044.69,1260.10,1570.92,1765.77,600.03,604.68,51.28,0000 0000 0000 0000 000000
2016-04-14 01:23:55,0.37,9.46,0.00,19.42,24.08,27.17,14.81,52.02,1018.99,2044.31,1257.61,1569.03,1763.59,599.86,604.60,51.33,0000 0000 0000 0000 000000
2016-04-14 01:28:56,0.47,9.48,0.00,19.45,24.10,27.18,14.91,52.13,1019.05,2044.13,1254.73,1566.89,1761.24,600.04,604.77,51.38,0000 0000 0000 0000 000000
2016-04-14 01:33:58,0.45,9.51,0.00,19.50,24.12,27.21,14.78,52.13,1019.06,2044.07,1252.19,1564.94,1758.99,600.13,604.73,51.43,0000 0000 0000 0000 000000
2016-04-14 01:38:59,0.43,9.53,0.00,19.54,24.15,27.22,14.79,52.20,1019.06,2044.01,1249.56,1562.94,1756.65,600.03,604.59,51.48,0000 0000 0000 0000 000000
2016-04-14 01:44:00,0.42,9.55,0.00,19.57,24.17,27.24,14.86,52.26,1019.06,2044.00,1247.13,1561.05,1754.52,600.12,604.57,51.53,0000 0000 0000 0000 000000
2016-04-14 01:49:02,0.38,9.57,0.00,19.61,24.20,27.27,14.73,52.31,1019.06,2044.00,1244.94,1559.40,1752.62,599.98,604.52,51.58,0000 0000 0000 0000 000000
2016-04-14 01:54:03,0.37,9.59,0.00,19.65,24.23,27.28,14.84,52.25,1019.06,2044.00,1242.89,1557.77,1750.82,600.04,604.35,51.63,0000 0000 0000 0000 000000
2016-04-14 01:59:04,0.33,9.61,0.00,19.69,24.27,27.32,14.87,52.30,1019.06,2043.98,1240.95,1556.28,1749.08,599.71,603.78,51.68,0000 0000 0000 0000 000000
2016-04-14 02:04:06,0.34,9.62,0.00,19.73,24.30,27.34,14.80,52.17,1019.06,2043.97,1239.07,1554.76,1747.42,600.03,604.22,51.73,0000 0000 0000 0000 000000
2016-04-14 02:09:07,0.26,9.64,0.00,19.78,24.34,27.35,14.85,52.14,1019.06,2043.78,1237.28,1553.41,1745.74,600.00,604.03,51.78,0000 0000 0000 0000 000000
2016-04-14 02:14:08,0.24,9.65,0.00,19.83,24.37,27.37,14.81,52.40,1019.06,2043.26,1235.57,1551.96,1744.20,600.12,604.06,51.83,0000 0000 0000 0000 000000
2016-04-14 02:19:10,0.33,9.66,0.00,19.87,24.41,27.40,14.84,52.30,1019.06,2043.10,1233.79,1550.56,1742.59,599.94,603.79,51.89,0000 0000 0000 0000 000000
2016-04-14 02:24:11,0.29,9.68,0.00,19.92,24.45,27.44,14.80,52.37,1019.06,2043.01,1232.00,1549.14,1740.89,600.15,603.87,51.94,0000 0000 0000 0000 000000
2016-04-14 02:29:12,0.34,9.70,0.00,19.97,24.49,27.46,14.77,52.27,1019.06,2043.00,1230.14,1547.66,1739.22,600.04,603.72,51.99,0000 0000 0000 0000 000000
2016-04-14 02:34:14,0.36,9.72,0.00,20.01,24.53,27.50,14.75,52.26,1019.06,2043.00,1228.15,1546.09,1737.49,599.98,603.54,52.04,0000 0000 0000 0000 000000
2016-04-14 02:39:15,0.35,9.73,0.00,20.06,24.57,27.51,14.87,52.35,1019.06,2042.95,1226.17,1544.57,1735.72,600.15,603.63,52.09,0000 0000 0000 0000 000000
2016-04-14 02:44:16,0.30,9.75,0.00,20.11,24.61,27.57,14.83,52.25,1019.06,2042.75,1224.18,1543.07,1734.03,600.54,603.87,52.14,0000 0000 0000 0000 000000
2016-04-14 02:49:17,0.27,9.76,0.00,20.16,24.66,27.59,14.81,52.23,1019.07,2042.24,1222.34,1541.57,1732.32,600.16,603.47,52.19,0000 0000 0000 0000 000000
2016-04-14 02:54:19,0.33,9.78,0.00,20.20,24.70,27.64,14.68,52.25,1019.08,2042.02,1220.39,1539.97,1730.56,599.88,603.10,52.24,0000 0000 0000 0000 000000
2016-04-14 02:59:20,0.36,9.80,0.00,20.26,24.74,27.65,14.81,52.31,1019.08,2042.00,1218.57,1538.51,1728.82,600.15,603.08,52.29,0000 0000 0000 0000 000000
2016-04-14 03:04:22,0.28,9.81,0.00,20.32,24.79,27.71,14.85,52.26,1019.09,2041.99,1216.88,1537.20,1727.43,600.33,603.20,52.34,0000 0000 0000 0000 000000
2016-04-14 03:09:24,0.26,9.83,0.00,20.35,24.83,27.75,14.83,52.27,1019.08,2041.96,1215.42,1535.92,1726.07,600.21,603.02,52.39,0000 0000 0000 0000 000000
2016-04-14 03:14:25,0.19,9.84,0.00,20.41,24.87,27.79,14.80,52.26,1019.10,2041.66,1214.00,1534.88,1724.71,600.02,602.75,52.44,0000 0000 0000 0000 000000
2016-04-14 03:19:27,0.18,9.85,0.00,20.47,24.92,27.82,14.85,52.29,1019.10,2041.15,1212.67,1533.84,1723.53,600.55,603.10,52.49,0000 0000 0000 0000 000000
2016-04-14 03:24:28,0.20,9.86,0.00,20.53,24.96,27.86,14.85,52.17,1019.16,2041.00,1211.54,1532.87,1722.40,599.98,602.45,52.54,0000 0000 0000 0000 000000
2016-04-14 03:29:29,0.24,9.87,0.00,20.57,25.00,27.91,14.65,52.13,1019.18,2041.00,1210.27,1531.79,1721.21,599.52,601.99,52.59,0000 0000 0000 0000 000000
2016-04-14 03:34:30,0.32,9.88,0.00,20.62,25.04,27.95,14.82,52.11,1019.31,2041.00,1208.57,1530.55,1719.80,600.47,602.96,52.64,0000 0000 0000 0000 000000
2016-04-14 03:39:32,0.21,9.90,0.00,20.68,25.08,28.00,14.84,52.13,1019.48,2040.93,1207.31,1529.54,1718.63,600.12,602.55,52.69,0000 0000 0000 0000 000000
2016-04-14 03:44:33,0.17,9.91,0.00,20.74,25.12,28.04,14.72,51.97,1019.53,2040.57,1205.93,1528.52,1717.49,600.05,602.40,52.75,0000 0000 0000 0000 000000
2016-04-14 03:49:34,0.18,9.92,0.00,20.80,25.16,28.08,14.66,51.94,1019.55,2040.08,1204.67,1527.50,1716.29,599.91,602.11,52.80,0000 0000 0000 0000 000000
2016-04-14 03:54:36,0.21,9.93,0.00,20.85,25.21,28.13,14.81,51.98,1019.55,2040.04,1203.54,1526.57,1715.31,600.02,602.18,52.85,0000 0000 0000 0000 000000
2016-04-14 03:59:37,0.19,9.94,0.00,20.90,25.24,28.17,14.71,52.08,1019.55,2040.00,1202.43,1525.74,1714.31,599.93,601.88,52.90,0000 0000 0000 0000 000000
2016-04-14 04:04:38,0.17,9.95,0.00,20.96,25.28,28.22,14.72,51.98,1019.55,2040.00,1201.46,1524.92,1713.36,600.06,601.95,52.95,0000 0000 0000 0000 000000
2016-04-14 04:09:40,0.19,9.96,0.00,21.00,25.33,28.27,14.65,51.87,1019.56,2039.99,1200.48,1524.06,1712.51,599.93,601.86,53.00,0000 0000 0000 0000 000000
2016-04-14 04:14:41,0.17,9.97,0.00,21.05,25.37,28.31,14.77,51.94,1019.58,2039.89,1199.54,1523.25,1711.65,599.95,601.65,53.05,0000 0000 0000 0000 000000
2016-04-14 04:19:43,0.06,9.97,0.00,21.09,25.41,28.34,14.72,52.05,1019.68,2039.35,1198.72,1522.60,1710.83,600.10,601.74,53.10,0000 0000 0000 0000 000000
2016-04-14 04:24:44,0.14,9.98,0.00,21.14,25.46,28.38,14.81,52.09,1019.77,2039.03,1197.73,1521.80,1709.94,600.08,601.64,53.15,0000 0000 0000 0000 000000
2016-04-14 04:29:45,0.19,9.99,0.00,21.20,25.51,28.45,14.77,52.14,1019.81,2039.00,1196.73,1520.90,1708.94,599.88,601.41,53.20,0000 0000 0000 0000 000000
2016-04-14 04:34:46,0.22,10.00,0.00,21.24,25.56,28.49,14.68,52.13,1019.83,2038.99,1195.59,1519.99,1707.87,599.69,601.21,53.25,0000 0000 0000 0000 000000
2016-04-14 04:39:47,0.21,10.01,0.00,21.30,25.61,28.51,14.68,52.13,1019.92,2038.88,1194.33,1518.98,1706.70,600.05,601.49,53.30,0000 0000 0000 0000 000000
2016-04-14 04:44:49,0.14,10.02,0.00,21.34,25.65,28.56,14.69,52.01,1019.99,2038.33,1193.08,1517.86,1705.50,600.11,601.37,53.35,0000 0000 0000 0000 000000
2016-04-14 04:49:50,0.19,10.03,0.00,21.39,25.70,28.61,14.74,52.13,1019.99,2038.05,1191.91,1516.91,1704.50,600.03,601.33,53.40,0000 0000 0000 0000 000000
2016-04-14 04:54:51,0.27,10.04,0.00,21.43,25.75,28.65,14.76,52.15,1020.00,2038.00,1190.68,1515.83,1703.30,599.86,601.11,53.45,0000 0000 0000 0000 000000
2016-04-14 04:59:52,0.25,10.05,0.00,21.47,25.81,28.69,14.54,52.02,1020.03,2037.99,1189.36,1514.72,1701.94,599.39,600.45,53.50,0000 0000 0000 0000 000000
2016-04-14 05:04:53,0.23,10.06,0.00,21.53,25.85,28.74,14.82,52.07,1020.03,2037.97,1188.14,1513.65,1700.74,600.27,601.47,53.55,0000 0000 0000 0000 000000
2016-04-14 05:09:55,0.18,10.07,0.00,21.57,25.90,28.78,14.71,52.11,1020.03,2037.51,1186.83,1512.55,1699.54,600.10,601.03,53.61,0000 0000 0000 0000 000000
2016-04-14 05:14:56,0.20,10.08,0.00,21.62,25.95,28.82,14.69,51.96,1020.03,2037.07,1185.56,1511.49,1698.37,600.19,601.03,53.66,0000 0000 0000 0000 000000
2016-04-14 05:19:57,0.23,10.10,0.00,21.67,25.99,28.88,14.69,51.98,1020.03,2037.01,1184.21,1510.40,1697.02,600.00,600.80,53.71,0000 0000 0000 0000 000000
2016-04-14 05:24:59,0.29,10.11,0.00,21.71,26.04,28.92,14.67,52.06,1020.04,2037.00,1182.77,1509.22,1695.77,599.85,600.50,53.76,0000 0000 0000 0000 000000
2016-04-14 05:30:00,0.25,10.12,0.00,21.75,26.09,28.94,14.63,51.92,1020.04,2036.98,1181.45,1508.10,1694.49,599.72,600.25,53.81,0000 0000 0000 0000 000000
2016-04-14 05:35:01,0.17,10.14,0.00,21.80,26.13,28.99,14.72,52.00,1020.04,2036.65,1180.01,1506.95,1693.21,600.05,600.53,53.86,0000 0000 0000 0000 000000
2016-04-14 05:40:02,0.22,10.14,0.00,21.85,26.18,29.04,14.63,51.95,1020.05,2036.09,1178.73,1505.86,1691.92,600.01,600.21,53.91,0000 0000 0000 0000 000000
2016-04-14 05:45:04,0.25,10.15,0.00,21.89,26.23,29.08,14.71,52.06,1020.14,2036.00,1177.50,1504.79,1690.71,599.93,600.30,53.96,0000 0000 0000 0000 000000
2016-04-14 05:50:05,0.24,10.17,0.00,21.95,26.28,29.13,14.63,52.01,1020.27,2036.00,1176.21,1503.76,1689.51,600.07,600.35,54.01,0000 0000 0000 0000 000000
2016-04-14 05:55:06,0.27,10.18,0.00,21.98,26.33,29.17,14.66,52.03,1020.34,2035.98,1174.88,1502.54,1688.23,600.11,600.36,54.06,0000 0000 0000 0000 000000
2016-04-14 06:00:08,0.17,10.19,0.00,22.02,26.38,29.22,14.65,52.05,1020.43,2035.45,1173.52,1501.38,1686.86,600.12,600.46,54.11,0000 0000 0000 0000 000000
2016-04-14 06:05:09,0.23,10.20,0.00,22.08,26.42,29.24,14.68,52.07,1020.46,2035.07,1172.17,1500.28,1685.60,599.65,599.82,54.16,0000 0000 0000 0000 000000
2016-04-14 06:10:11,0.28,10.22,0.00,22.13,26.47,29.31,14.73,52.03,1020.51,2035.00,1170.67,1498.99,1684.22,600.14,600.21,54.21,0000 0000 0000 0000 000000
2016-04-14 06:15:12,0.28,10.23,0.00,22.17,26.52,29.35,14.74,52.06,1020.52,2035.00,1169.25,1497.81,1682.89,600.23,600.21,54.26,0000 0000 0000 0000 000000
2016-04-14 06:20:14,0.32,10.24,0.00,22.22,26.56,29.39,14.59,52.01,1020.52,2034.97,1167.71,1496.63,1681.55,599.82,599.77,54.31,0000 0000 0000 0000 000000
2016-04-14 06:25:15,0.18,10.26,0.00,22.25,26.61,29.45,14.74,52.09,1020.52,2034.65,1166.30,1495.46,1680.19,600.25,600.10,54.36,0000 0000 0000 0000 000000
2016-04-14 06:30:16,0.22,10.27,0.00,22.30,26.65,29.48,14.60,52.00,1020.52,2034.16,1164.84,1494.30,1678.86,599.78,599.54,54.41,0000 0000 0000 0000 000000
2016-04-14 06:35:18,0.26,10.28,0.00,22.36,26.70,29.52,14.60,52.04,1020.53,2034.01,1163.48,1493.12,1677.59,599.95,599.56,54.46,0000 0000 0000 0000 000000
2016-04-14 06:40:19,0.26,10.29,0.00,22.39,26.74,29.56,14.57,51.89,1020.52,2034.00,1162.11,1491.96,1676.29,599.85,599.43,54.52,0000 0000 0000 0000 000000
2016-04-14 06:45:20,0.34,10.31,0.00,22.44,26.79,29.60,14.69,51.85,1020.53,2033.98,1160.46,1490.69,1674.81,600.34,599.75,54.57,0000 0000 0000 0000 000000
2016-04-14 06:50:22,0.40,10.33,0.00,22.50,26.83,29.65,14.67,52.01,1020.53,2033.92,1158.31,1489.13,1673.06,599.83,599.21,54.62,0000 0000 0000 0000 000000
2016-04-14 06:55:23,0.34,10.35,0.00,22.54,26.87,29.69,14.65,51.95,1020.55,2033.48,1155.98,1487.39,1671.05,599.99,599.14,54.67,0000 0000 0000 0000 000000
2016-04-14 07:00:25,0.40,10.37,0.00,22.58,26.91,29.74,14.65,51.88,1020.56,2033.03,1153.72,1485.64,1669.13,599.71,598.93,54.72,0000 0000 0000 0000 000000
2016-04-14 07:05:27,0.45,10.39,0.00,22.63,26.94,29.80,14.74,51.92,1020.67,2033.00,1151.38,1483.86,1667.06,600.37,599.53,54.77,0000 0000 0000 0000 000000
2016-04-14 07:10:28,0.42,10.41,0.00,22.67,26.97,29.84,14.74,51.98,1020.81,2033.00,1149.24,1482.14,1665.10,600.27,599.42,54.82,0000 0000 0000 0000 000000
2016-04-14 07:15:29,0.36,10.43,0.00,22.73,27.00,29.89,14.69,51.91,1020.94,2032.98,1147.37,1480.56,1663.35,600.16,599.29,54.87,0000 0000 0000 0000 000000
2016-04-14 07:20:30,0.38,10.45,0.00,22.78,27.03,29.93,14.73,51.92,1020.97,2032.94,1145.40,1479.12,1661.74,600.32,599.36,54.92,0000 0000 0000 0000 000000
2016-04-14 07:25:32,0.43,10.47,0.00,22.83,27.06,29.98,14.62,51.82,1020.97,2032.61,1142.86,1477.21,1659.62,599.97,598.90,54.97,0000 0000 0000 0000 000000
2016-04-14 07:30:33,0.46,10.50,0.00,22.88,27.09,30.03,14.64,51.83,1021.00,2032.17,1140.28,1475.28,1657.38,599.60,598.47,55.02,0000 0000 0000 0000 000000
2016-04-14 07:35:35,0.57,10.52,0.00,22.93,27.12,30.07,14.65,51.79,1021.01,2032.02,1137.35,1473.04,1654.88,599.70,598.45,55.07,0000 0000 0000 0000 000000
2016-04-14 07:40:36,0.34,10.55,0.00,22.97,27.15,30.12,14.65,51.77,1021.01,2032.00,1135.32,1471.49,1652.93,599.86,598.54,55.12,0000 0000 0000 0000 000000
2016-04-14 07:45:37,0.36,10.56,0.00,23.02,27.18,30.17,14.67,51.76,1021.01,2032.00,1133.51,1470.25,1651.42,599.91,598.51,55.17,0000 0000 0000 0000 000000
2016-04-14 07:50:39,0.53,10.59,0.00,23.08,27.22,30.22,14.62,51.76,1021.02,2031.99,1130.96,1468.27,1649.19,600.35,598.69,55.22,0000 0000 0000 0000 000000
2016-04-14 07:55:40,0.65,10.61,0.00,23.13,27.26,30.26,14.66,51.76,1021.03,2031.95,1127.85,1465.91,1646.52,599.94,598.34,55.27,0000 0000 0000 0000 000000
2016-04-14 08:00:41,0.60,10.65,0.00,23.19,27.29,30.28,14.61,51.77,1021.05,2031.84,1124.48,1463.42,1643.71,599.83,598.06,55.32,0000 0000 0000 0000 000000
2016-04-14 08:05:42,0.37,10.67,0.00,23.24,27.33,30.32,14.67,51.72,1021.06,2031.38,1122.20,1461.61,1641.68,600.18,598.31,55.38,0000 0000 0000 0000 000000
2016-04-14 08:10:43,0.43,10.69,0.00,23.30,27.38,30.36,14.62,51.77,1021.09,2031.07,1119.91,1459.81,1639.64,599.80,597.83,55.43,0000 0000 0000 0000 000000
2016-04-14 08:15:45,0.51,10.72,0.00,23.35,27.42,30.41,14.63,51.88,1021.24,2031.00,1117.35,1457.87,1637.44,600.08,598.08,55.48,0000 0000 0000 0000 000000
2016-04-14 08:20:46,0.48,10.74,0.00,23.40,27.47,30.46,14.56,51.82,1021.39,2031.00,1114.95,1455.95,1635.20,599.67,597.76,55.53,0000 0000 0000 0000 000000
2016-04-14 08:25:47,0.38,10.76,0.00,23.45,27.51,30.50,14.65,51.84,1021.47,2030.93,1112.84,1454.41,1633.50,600.28,598.26,55.58,0000 0000 0000 0000 000000
2016-04-14 08:30:48,0.30,10.78,0.00,23.49,27.56,30.55,14.57,51.88,1021.50,2030.47,1111.10,1452.88,1631.81,599.75,597.66,55.63,0000 0000 0000 0000 000000
2016-04-14 08:35:49,0.30,10.80,0.00,23.54,27.61,30.60,14.58,51.93,1021.50,2030.05,1109.17,1451.42,1630.08,599.95,597.71,55.68,0000 0000 0000 0000 000000
2016-04-14 08:40:51,0.42,10.81,0.00,23.58,27.66,30.64,14.66,51.85,1021.50,2030.00,1107.35,1449.84,1628.37,600.13,597.86,55.73,0000 0000 0000 0000 000000
2016-04-14 08:45:52,0.52,10.84,0.00,23.61,27.71,30.68,14.65,51.88,1021.50,2029.99,1104.82,1447.88,1626.18,600.03,597.64,55.78,0000 0000 0000 0000 000000
2016-04-14 08:50:53,0.41,10.86,0.00,23.64,27.75,30.71,14.54,51.89,1021.50,2029.96,1102.60,1446.21,1624.22,599.97,597.63,55.83,0000 0000 0000 0000 000000
2016-04-14 08:55:54,0.42,10.88,0.00,23.67,27.80,30.76,14.65,51.92,1021.50,2029.43,1100.31,1444.36,1622.11,599.93,597.50,55.88,0000 0000 0000 0000 000000
2016-04-14 09:00:55,0.49,10.91,0.00,23.70,27.84,30.79,14.60,52.01,1021.50,2029.04,1097.71,1442.34,1619.78,600.25,597.68,55.93,0000 0000 0000 0000 000000
2016-04-14 09:05:57,0.58,10.94,0.00,23.73,27.88,30.84,14.62,51.80,1021.51,2029.00,1094.88,1440.23,1617.40,599.77,597.19,55.98,0000 0000 0000 0000 000000
2016-04-14 09:10:58,0.61,10.97,0.00,23.75,27.92,30.87,14.62,51.88,1021.50,2028.99,1091.99,1437.99,1614.96,599.88,597.28,56.03,0000 0000 0000 0000 000000
2016-04-14 09:15:59,0.59,10.99,0.00,23.77,27.95,30.91,14.58,52.01,1021.52,2028.87,1089.11,1435.74,1612.37,600.02,597.50,56.08,0000 0000 0000 0000 000000
2016-04-14 09:21:01,0.60,11.03,0.00,23.78,27.98,30.94,14.65,51.92,1021.59,2028.30,1085.83,1433.11,1609.39,600.11,597.47,56.13,0000 0000 0000 0000 000000
2016-04-14 09:26:02,0.67,11.06,0.00,23.81,28.01,30.97,14.59,52.02,1021.86,2028.02,1082.46,1430.51,1606.50,599.98,597.43,56.18,0000 0000 0000 0000 000000
2016-04-14 09:31:03,0.63,11.09,0.90,23.82,28.02,31.02,14.62,51.98,1021.96,2028.00,1079.31,1428.19,1603.94,600.40,597.95,56.23,0000 0000 0000 0000 000000
2016-04-14 09:36:04,0.64,11.12,1.00,23.83,28.05,31.06,14.62,52.01,1021.97,2028.00,1076.25,1425.97,1601.37,600.22,597.69,56.29,0000 0000 0000 0000 000000
2016-04-14 09:41:06,0.59,11.16,1.00,23.86,28.07,31.09,14.60,51.88,1021.98,2028.00,1073.30,1423.80,1599.06,600.00,597.46,56.34,0000 0000 0000 0000 000000
2016-04-14 09:46:07,0.59,11.19,1.00,23.88,28.08,31.12,14.56,51.85,1021.99,2028.00,1070.42,1421.64,1596.72,599.83,597.20,56.39,0000 0000 0000 0000 000000
2016-04-14 09:51:08,0.76,11.22,1.00,23.89,28.10,31.16,14.48,51.76,1021.99,2027.97,1067.04,1419.04,1593.69,599.94,597.22,56.44,0000 0000 0000 0000 000000
2016-04-14 09:56:10,0.98,11.26,1.00,23.91,28.11,31.18,14.65,51.88,1021.99,2027.90,1062.51,1415.70,1589.97,600.17,597.51,56.49,0000 0000 0000 0000 000000
2016-04-14 10:01:11,1.00,11.31,1.00,23.92,28.12,31.22,14.66,51.87,1022.00,2027.78,1057.66,1412.10,1585.93,600.17,597.50,56.54,0000 0000 0000 0000 000000
2016-04-14 10:06:12,0.96,11.36,1.00,23.93,28.15,31.26,14.59,51.90,1022.00,2027.28,1052.74,1408.50,1581.79,599.84,597.16,56.59,0000 0000 0000 0000 000000
2016-04-14 10:11:13,0.93,11.41,1.00,23.95,28.16,31.28,14.65,51.83,1022.00,2027.07,1048.32,1405.00,1577.72,600.28,597.54,56.64,0000 0000 0000 0000 000000
2016-04-14 10:16:15,1.03,11.46,1.00,23.95,28.17,31.32,14.60,51.82,1022.03,2027.01,1043.65,1401.51,1573.72,600.06,597.32,56.69,0000 0000 0000 0000 000000
2016-04-14 10:21:16,0.97,11.51,1.00,23.95,28.18,31.35,14.60,51.73,1022.17,2027.01,1039.02,1397.98,1569.78,600.06,597.42,56.74,0000 0000 0000 0000 000000
2016-04-14 10:26:17,0.84,11.56,1.00,23.96,28.20,31.37,14.60,51.67,1022.39,2027.00,1035.32,1395.04,1566.37,600.33,597.85,56.79,0000 0000 0000 0000 000000
2016-04-14 10:31:19,0.88,11.60,1.00,23.97,28.22,31.39,14.68,51.79,1022.45,2027.00,1031.15,1392.02,1562.93,600.25,597.77,56.84,0000 0000 0000 0000 000000
2016-04-14 10:36:21,0.93,11.65,1.00,23.97,28.22,31.41,14.64,51.71,1022.48,2027.00,1026.90,1388.94,1559.52,599.92,597.49,56.89,0000 0000 0000 0000 000000
2016-04-14 10:41:22,0.92,11.69,1.00,23.97,28.24,31.44,14.65,51.76,1022.48,2027.00,1022.66,1385.72,1555.89,599.90,597.44,56.94,0000 0000 0000 0000 000000
2016-04-14 10:46:24,0.59,11.74,1.00,23.98,28.25,31.46,14.68,51.70,1022.48,2026.99,1019.92,1383.36,1553.13,599.90,597.43,56.99,0000 0000 0000 0000 000000
2016-04-14 10:51:25,0.75,11.77,1.00,23.98,28.26,31.44,14.69,51.69,1022.48,2026.96,1016.67,1380.95,1550.45,600.12,597.67,57.04,0000 0000 0000 0000 000000
2016-04-14 10:56:26,0.39,11.80,1.00,24.01,28.27,31.45,14.62,51.72,1022.48,2026.93,1014.39,1379.26,1548.52,599.87,597.28,57.09,0000 0000 0000 0000 000000
2016-04-14 11:01:28,0.58,11.82,1.00,24.06,28.27,31.46,14.60,51.69,1022.49,2026.69,1012.03,1377.29,1546.27,599.83,597.12,57.15,0000 0000 0000 0000 000000
2016-04-14 11:06:29,0.58,11.85,1.00,24.13,28.29,31.47,14.62,51.64,1022.49,2026.47,1009.18,1375.30,1544.04,600.13,597.29,57.20,0000 0000 0000 0000 000000
2016-04-14 11:11:30,0.53,11.88,1.00,24.14,28.30,31.47,14.61,51.58,1022.50,2026.38,1006.74,1373.36,1541.85,600.09,597.33,57.25,0000 0000 0000 0000 000000
2016-04-14 11:16:32,0.56,11.91,1.00,24.07,28.30,31.45,14.65,51.54,1022.51,2026.09,1004.21,1371.36,1539.52,599.97,597.28,57.30,0000 0000 0000 0000 000000
2016-04-14 11:21:33,0.62,11.94,1.00,23.98,28.30,31.45,14.64,51.67,1022.50,2026.09,1001.53,1369.39,1537.32,600.24,597.58,57.35,0000 0000 0000 0000 000000
2016-04-14 11:26:34,0.58,11.97,1.00,23.89,28.30,31.44,14.66,51.63,1022.57,2026.08,998.81,1367.38,1535.12,600.09,597.85,57.40,0000 0000 0000 0000 000000
2016-04-14 11:31:36,0.48,11.99,1.00,23.82,28.30,31.45,14.65,51.88,1022.67,2026.02,996.80,1365.57,1533.22,600.00,597.92,57.45,0000 0000 0000 0000 000000
2016-04-14 11:36:37,0.54,12.02,1.00,23.74,28.30,31.44,14.57,51.60,1022.63,2026.00,994.29,1363.76,1531.19,599.64,597.77,57.50,0000 0000 0000 0000 000000
2016-04-14 11:41:38,0.54,12.05,1.00,23.68,28.29,31.43,14.59,51.79,1022.62,2026.02,991.97,1362.07,1529.19,599.69,597.99,57.55,0000 0000 0000 0000 000000
2016-04-14 11:46:40,0.57,12.08,1.00,23.63,28.27,31.43,14.71,51.83,1022.56,2026.03,989.35,1360.22,1527.15,600.33,598.48,57.60,0000 0000 0000 0000 000000
2016-04-14 11:51:41,0.55,12.11,1.00,23.59,28.27,31.42,14.68,51.71,1022.60,2026.05,986.93,1358.44,1525.11,600.03,598.39,57.65,0000 0000 0000 0000 000000
2016-04-14 11:56:42,0.47,12.13,1.00,23.53,28.25,31.42,14.64,51.77,1022.62,2026.04,985.05,1356.80,1523.23,599.86,598.39,57.70,0000 0000 0000 0000 000000
2016-04-14 12:01:44,0.43,12.16,1.00,23.49,28.24,31.39,14.65,51.82,1022.71,2026.02,983.17,1355.31,1521.43,599.74,598.34,57.75,0000 0000 0000 0000 000000
2016-04-14 12:06:45,0.56,12.18,1.00,23.46,28.22,31.40,14.72,51.77,1022.70,2026.04,980.80,1353.62,1519.60,600.11,598.89,57.80,0000 0000 0000 0000 000000
2016-04-14 12:11:46,0.47,12.21,1.00,23.39,28.20,31.39,14.67,51.82,1022.70,2026.11,978.63,1352.10,1517.79,599.42,598.25,57.85,0000 0000 0000 0000 000000
2016-04-14 12:16:47,0.46,12.23,1.00,23.36,28.18,31.36,14.65,51.65,1022.68,2026.27,976.81,1350.75,1516.33,599.96,598.85,57.90,0000 0000 0000 0000 000000
2016-04-14 12:21:49,0.49,12.25,1.00,23.33,28.16,31.37,14.67,51.63,1022.74,2026.68,975.02,1349.50,1514.83,600.16,599.13,57.95,0000 0000 0000 0000 000000
2016-04-14 12:26:50,0.40,12.28,0.93,23.27,28.14,31.34,14.71,51.73,1022.77,2026.95,973.25,1348.22,1513.44,600.18,599.20,58.01,0000 0000 0000 0000 000000
2016-04-14 12:31:51,0.42,12.30,0.00,23.24,28.12,31.33,14.72,51.85,1022.87,2026.96,971.53,1346.86,1511.94,600.06,599.22,58.06,0000 0000 0000 0000 000000
2016-04-14 12:36:53,0.45,12.32,0.00,23.21,28.10,31.31,14.66,51.84,1022.83,2026.98,969.70,1345.59,1510.48,599.64,598.86,58.11,0000 0000 0000 0000 000000
2016-04-14 12:41:54,0.30,12.34,0.00,23.15,28.07,31.29,14.74,51.83,1022.90,2026.99,968.24,1344.39,1509.06,600.12,599.58,58.16,0000 0000 0000 0000 000000
2016-04-14 12:46:55,0.44,12.36,0.00,23.12,28.05,31.25,14.69,51.70,1022.89,2026.99,966.43,1343.15,1507.59,600.32,599.78,58.21,0000 0000 0000 0000 000000
2016-04-14 12:51:56,0.30,12.38,0.00,23.08,28.02,31.25,14.70,51.74,1022.78,2026.99,964.95,1342.09,1506.24,600.36,599.88,58.26,0000 0000 0000 0000 000000